Weather Roundup
Issued by NWS Chicago, IL

Home | Current Version | Previous Version | Graphics & Text | Print | Product List | Glossary On
Versions: 1 2 3 4 5 6 7 8 9 10 11 12 13 14 15 16 17 18 19 20 21 22 23 24 25 26 27 28 29 30 31 32 33 34 35 36 37 38 39 40 41 42 43 44 45 46 47 48 49 50
000
NZUS59 KLOT 270008
HRRLOT

CHICAGO AREA WEATHER ROUNDUP
NATIONAL WEATHER SERVICE CHICAGO/ROMEOVILLE IL
700 PM CDT TUE MAY 26 2015

NOTE: "FAIR" INDICATES FEW OR NO CLOUDS BELOW 12,000 FEET WITH NO
SIGNIFICANT WEATHER AND/OR OBSTRUCTIONS TO VISIBILITY.

* THESE STATIONS ARE NOT UNDER NWS QUALITY CONTROL. THEY ALSO MAY NOT
  REPORT WEATHER SUCH AS PRECIPITATION OR FOG.

ILZ005-006-012>014-019>023-270100-
NORTHEAST ILLINOIS

CITY           SKY/WX    TMP DP  RH WIND       PRES   REMARKS
OHARE          LGT RAIN  69  64  84 SW14      29.78R
6HR MIN TEMP:  68; 6HR MAX TEMP:  74; 6HR PCP:  0.29;

MIDWAY         PTSUNNY   74  63  68 SW18G28   29.79R
6HR MIN TEMP:  69; 6HR MAX TEMP:  77; 6HR PCP:  0.22;

AURORA         PTSUNNY   70  61  73 SW14      29.80R
6HR MIN TEMP:  69; 6HR MAX TEMP:  76; 6HR PCP:  0.06;

LANSING*       MOSUNNY   72  58  61 SW21G30   29.82R
JOLIET*        PTSUNNY   74  62  65 SW13G25   29.82R
WAUKEGAN       PTSUNNY   69  62  78 SW15      29.75R
6HR MIN TEMP:  61; 6HR MAX TEMP:  76; 6HR PCP:  0.31;

DUPAGE AIRPORT CLOUDY    71  62  73 SW14      29.78R
6HR MIN TEMP:  68; 6HR MAX TEMP:  75; 6HR PCP:  0.07;

WHEELING       PTSUNNY   72  61  68 SW14G23   29.78R
6HR MIN TEMP:  69; 6HR MAX TEMP:  75; 6HR PCP:  0.31;

KANKAKEE*      MOSUNNY   72  64  74 SW16G22   29.86R
MORRIS*        MOSUNNY   73  60  64 W14G23    29.80R
LEWIS AIRPORT* PTSUNNY   71  60  67 SW17G26   29.81R
NORTHERLY IS     N/A     73  59  61 SW10        N/A
$$

WIZ051-052-058>065-066-070>072-270100-
SOUTHEAST WISCONSIN

CITY           SKY/WX    TMP DP  RH WIND       PRES   REMARKS
MILWAUKEE      PTSUNNY   72  62  71 SW17G25   29.72R
6HR MIN TEMP:  60; 6HR MAX TEMP:  76; 6HR PCP:  0.31;

KENOSHA*       MOSUNNY   70  63  78 SW14G23   29.74S
RACINE*        CLOUDY    70  62  76 SW14G20   29.74R
BURLINGTON     SUNNY     69  57  66 SW22G28   29.74R
WAUKESHA       CLOUDY    70  57  64 SW15G23   29.72R
WEST BEND      PTSUNNY   70  59  68 S13G23    29.68R
$$

INZ001>003-010>013-019-020-270100-
NORTHWEST INDIANA

CITY           SKY/WX    TMP DP  RH WIND       PRES   REMARKS
GARY*          MOSUNNY   75  59  57 SW17G35   29.82R
MICHIGAN CITY* NOT AVBL
RENSSELAER*    NOT AVBL
VALPARAISO     MOSUNNY   72  60  66 SW16G26   29.84R
$$

LMZ740>746-270100-
SOUTHERN LAKE MICHIGAN

STATION/POSITION TIME  SKY/WX   TEMP WIND        PRES    VSBY
                                AIR  DIR/SP/G
                 (UTC)          (F)  (DEG/KT/KT) (MB)    (MI)
HARRISON CRIB    2300            71  210/ 24/ 31   N/A
BURNHAM HARBOR   0000            73  200/ 11/ 22   N/A
CALUMET HARBOR   2312            74  220/ 14/ 23   N/A
BURNS HARBOR     2340            73  220/ 20     1009.5S
MICHIGAN CITY    2300            73  180/ 18/ 28   N/A
$$

ABBREVIATIONS USED IN REMARKS
   TC - TEMPERATURE IN CELSIUS
  WCI - WIND CHILL INDEX
   HX - HEAT INDEX
  VSB - VISIBILITY
$$


USA.gov is the U.S. government's official web portal to all federal, state and local government web resources and services.